Weather History for Charlevoix, MI

Change the Weather History Date:

Wednesday, September 11, 2013

  Actual Average Record
Temperature  
Mean Temperature 70 °F -  
Max Temperature 75 °F 79 °F 86 °F (2005)
Min Temperature 65 °F 60 °F 44 °F (2007)
Cooling Degree Days 5    
Growing Degree Days 20 (Base 50)    
Moisture  
Dew Point 66 °F    
Average Humidity 90    
Maximum Humidity 100    
Minimum Humidity 76    
Precipitation  
Precipitation 0.00 in - - ()
Sea Level Pressure  
Sea Level Pressure 29.97 in    
Wind  
Wind Speed 8 mph (SW)    
Max Wind Speed 15 mph    
Max Gust Speed 20 mph    
Visibility 10 miles    
Events Rain    
Averages and records for this station are not official NWS values.
T = Trace of Precipitation, MM = Missing Value Source: NWS Daily Summary

Daily Weather History Graph

Daily Weather History Graph

Search for Another Location

Airport:

Trip Planner

Search our weather history database for the weather conditions in past years. The results will help you decide how hot, cold, wet, or windy it might be!

Date:

Astronomy

Sep. 11, 2013 Rise Set
Actual Time 7:15 AM EDT 7:59 PM EDT
Civil Twilight 6:45 AM EDT 8:29 PM EDT
Nautical Twilight 6:09 AM EDT 9:04 PM EDT
Astronomical Twilight 5:32 AM EDT 9:41 PM EDT
Moon 2:00 PM EDT (9/11) 11:36 PM EDT (9/11)
Length of Visible Light 13h 43m
Length of Day
12h 44m
Waxing Crescent, 38% of the Moon is Illuminated
Sep 11
Waxing Crescent
Sep 12
First Quarter
Sep 19
Full
Sep 26
Last Quarter
Oct 4
New

Hourly Weather History & Observations

Time (EDT) Temp. Dew Point Humidity Pressure Visibility Wind Dir Wind Speed Gust Speed Precip Events Conditions
12:15 AM 66.7 °F 66.4 °F 99% 30.00 in 5.0 mi West 11.5 mph - N/A Rain Rain
12:35 AM 66.4 °F 66.2 °F 99% 30.00 in 10.0 mi WSW 8.1 mph - N/A Rain Rain
12:54 AM 65.8 °F 65.3 °F 98% 29.99 in 10.0 mi West 6.9 mph - N/A Rain Rain
1:15 AM 65.7 °F 65.3 °F 99% 29.98 in 10.0 mi SSW 4.6 mph - N/A Rain Rain
1:35 AM 65.5 °F 65.3 °F 99% 29.97 in 7.0 mi SSE 3.5 mph - N/A Rain Light Rain
1:54 AM 65.5 °F 65.5 °F 100% 29.99 in 10.0 mi South 5.8 mph - N/A Rain Rain
2:15 AM 65.5 °F 65.5 °F 100% 29.99 in 7.0 mi SSW 4.6 mph - N/A Rain Rain
2:35 AM 65.5 °F 65.5 °F 100% 29.98 in 7.0 mi South 4.6 mph - N/A Rain Rain
2:54 AM 65.5 °F 65.5 °F 100% 29.98 in 10.0 mi South 5.8 mph - N/A Rain Rain
3:15 AM 65.5 °F 65.5 °F 100% 29.97 in 7.0 mi South 8.1 mph - N/A Rain Rain
3:34 AM 65.5 °F 65.5 °F 100% 29.97 in 10.0 mi SSW 9.2 mph - N/A Rain Rain
3:54 AM 65.5 °F 65.5 °F 100% 29.97 in 10.0 mi SSW 6.9 mph - N/A Rain Light Rain
4:15 AM 65.5 °F 65.5 °F 100% 29.97 in 10.0 mi South 5.8 mph - N/A Rain Light Rain
4:34 AM 65.3 °F 65.3 °F 100% 29.97 in 10.0 mi SSW 5.8 mph - N/A Rain Light Rain
4:54 AM 65.3 °F 65.3 °F 100% 29.97 in 10.0 mi SSW 4.6 mph - N/A   Clear
5:15 AM 65.3 °F 65.3 °F 100% 29.97 in 10.0 mi SW 4.6 mph - N/A   Clear
5:34 AM 65.3 °F 65.3 °F 100% 29.96 in 10.0 mi SSW 6.9 mph - N/A   Clear
5:55 AM 65.3 °F 65.3 °F 100% 29.96 in 10.0 mi SSW 5.8 mph - N/A   Clear
6:14 AM 65.3 °F 65.3 °F 100% 29.97 in 10.0 mi SW 5.8 mph - N/A   Clear
6:34 AM 65.3 °F 65.3 °F 100% 29.97 in 10.0 mi SW 5.8 mph - N/A Rain Light Rain
6:55 AM 65.3 °F 65.3 °F 100% 29.97 in 10.0 mi SSW 5.8 mph - N/A   Clear
7:14 AM 65.3 °F 64.9 °F 99% 29.97 in 10.0 mi SSW 4.6 mph - N/A   Clear
7:35 AM 65.5 °F 65.3 °F 99% 29.98 in 10.0 mi SW 6.9 mph - N/A   Clear
7:55 AM 65.7 °F 65.3 °F 99% 29.98 in 10.0 mi SSW 8.1 mph - N/A   Clear
8:07 AM 65.8 °F 65.5 °F 99% 29.98 in 10.0 mi SSW 9.2 mph - N/A   Clear
8:34 AM 67.1 °F 66.4 °F 98% 29.99 in 10.0 mi SSW 5.8 mph - N/A   Clear
8:55 AM 68.2 °F 66.7 °F 95% 30.00 in 10.0 mi SW 8.1 mph - N/A   Clear
9:14 AM 69.1 °F 67.1 °F 93% 30.00 in 10.0 mi SW 10.4 mph - N/A   Clear
9:34 AM 69.4 °F 66.6 °F 91% 30.00 in 10.0 mi WSW 8.1 mph - N/A   Clear
9:55 AM 69.8 °F 65.7 °F 87% 30.00 in 10.0 mi WSW 11.5 mph - N/A   Scattered Clouds
10:14 AM 70.2 °F 66.2 °F 87% 30.00 in 10.0 mi SW 10.4 mph 17.3 mph N/A   Scattered Clouds
10:35 AM 70.2 °F 66.4 °F 88% 30.00 in 10.0 mi WSW 13.8 mph 18.4 mph N/A   Scattered Clouds
10:54 AM 69.8 °F 66.7 °F 90% 30.00 in 10.0 mi WSW 12.7 mph 18.4 mph N/A   Clear
11:14 AM 69.8 °F 67.5 °F 92% 29.99 in 10.0 mi WSW 9.2 mph - N/A   Scattered Clouds
11:35 AM 70.2 °F 68.0 °F 93% 29.99 in 10.0 mi WSW 8.1 mph 18.4 mph N/A   Mostly Cloudy
11:54 AM 70.7 °F 68.0 °F 91% 29.99 in 10.0 mi WSW 8.1 mph - N/A   Overcast
12:14 PM 70.7 °F 68.0 °F 91% 30.00 in 10.0 mi WSW 9.2 mph 17.3 mph N/A   Overcast
12:35 PM 71.2 °F 68.0 °F 89% 29.99 in 10.0 mi WSW 11.5 mph - N/A   Overcast
12:54 PM 71.1 °F 68.0 °F 90% 29.99 in 10.0 mi WSW 11.5 mph - N/A   Overcast
1:14 PM 71.1 °F 68.0 °F 90% 29.98 in 10.0 mi WSW 10.4 mph - N/A   Overcast
1:35 PM 72.3 °F 68.4 °F 87% 29.97 in 10.0 mi West 9.2 mph - N/A   Scattered Clouds
1:54 PM 73.2 °F 69.1 °F 87% 29.97 in 10.0 mi WSW 6.9 mph - N/A   Clear
2:14 PM 74.3 °F 68.2 °F 81% 29.97 in 10.0 mi WSW 9.2 mph - N/A   Clear
2:35 PM 75.4 °F 67.5 °F 76% 29.98 in 10.0 mi WSW 8.1 mph - N/A   Scattered Clouds
2:54 PM 75.0 °F 67.6 °F 78% 29.97 in 10.0 mi WSW 10.4 mph - N/A   Scattered Clouds
3:15 PM 75.2 °F 68.4 °F 79% 29.97 in 10.0 mi WSW 10.4 mph - N/A   Scattered Clouds
3:35 PM 74.7 °F 68.2 °F 80% 29.97 in 10.0 mi SW 9.2 mph - N/A   Scattered Clouds
3:54 PM 74.1 °F 68.0 °F 81% 29.98 in 10.0 mi West 13.8 mph 17.3 mph N/A   Scattered Clouds
4:15 PM 74.3 °F 68.0 °F 81% 29.98 in 10.0 mi WSW 13.8 mph 17.3 mph N/A   Clear
4:35 PM 74.3 °F 67.6 °F 80% 29.98 in 10.0 mi WSW 11.5 mph - N/A   Clear
4:54 PM 74.3 °F 66.7 °F 77% 29.98 in 10.0 mi WSW 9.2 mph - N/A   Clear
5:15 PM 73.8 °F 66.2 °F 77% 29.97 in 10.0 mi WSW 13.8 mph 19.6 mph N/A   Clear
5:35 PM 73.4 °F 66.2 °F 78% 29.98 in 10.0 mi WSW 13.8 mph - N/A   Clear
5:54 PM 73.6 °F 66.2 °F 78% 29.97 in 10.0 mi SW 10.4 mph - N/A   Clear
6:15 PM 73.4 °F 65.5 °F 76% 29.96 in 10.0 mi SW 9.2 mph - N/A   Clear
6:34 PM 73.2 °F 65.3 °F 76% 29.96 in 10.0 mi WSW 10.4 mph - N/A   Clear
6:55 PM 72.9 °F 65.7 °F 78% 29.96 in 10.0 mi WSW 11.5 mph - N/A   Clear
7:14 PM 72.0 °F 65.8 °F 81% 29.95 in 10.0 mi WSW 8.1 mph - N/A   Clear
7:35 PM 71.1 °F 64.6 °F 80% 29.94 in 10.0 mi SW 5.8 mph - N/A   Clear
7:55 PM 70.2 °F 64.0 °F 81% 29.94 in 10.0 mi SW 4.6 mph - N/A   Clear
8:14 PM 69.4 °F 64.0 °F 83% 29.94 in 10.0 mi SSW 4.6 mph - N/A   Scattered Clouds
8:35 PM 69.4 °F 64.4 °F 84% 29.93 in 10.0 mi SSW 4.6 mph - N/A   Mostly Cloudy
8:54 PM 69.8 °F 63.9 °F 81% 29.93 in 10.0 mi SSW 6.9 mph - N/A   Scattered Clouds
9:14 PM 70.3 °F 63.7 °F 79% 29.93 in 10.0 mi SSW 6.9 mph - N/A   Mostly Cloudy
9:35 PM 70.3 °F 63.9 °F 80% 29.93 in 10.0 mi SSW 6.9 mph - N/A   Overcast
9:54 PM 70.0 °F 63.9 °F 81% 29.93 in 10.0 mi SSW 8.1 mph - N/A   Scattered Clouds
10:15 PM 69.8 °F 64.0 °F 82% 29.92 in 10.0 mi SSW 8.1 mph - N/A   Scattered Clouds
10:35 PM 69.8 °F 64.4 °F 83% 29.92 in 10.0 mi SW 6.9 mph - N/A   Scattered Clouds
10:54 PM 70.7 °F 65.3 °F 83% 29.94 in 10.0 mi West 15.0 mph - N/A   Mostly Cloudy
11:15 PM 69.8 °F 66.4 °F 89% 29.94 in 10.0 mi West 9.2 mph - N/A   Overcast
11:34 PM 68.5 °F 66.2 °F 92% 29.95 in 10.0 mi NW 8.1 mph - N/A   Mostly Cloudy
11:55 PM 68.0 °F 64.4 °F 88% 29.95 in 10.0 mi NNW 6.9 mph - N/A   Mostly Cloudy